[Date Prev][Date Next][Thread Prev][Thread Next] - [Date Index][Thread Index][Author Index]

2 Line ISS Keps 9-20



ISS
1 25544U 98067A   04264.20277420  .00018922  00000-0  15914-3 0  7274
2 25544  51.6351 200.7631 0005586 169.4457 333.7742 15.69896776333240
----
Via the sarex mailing list at AMSAT.ORG courtesy of AMSAT-NA.
To unsubscribe, send "unsubscribe sarex" to Majordomo@amsat.org



AMSAT Top AMSAT Home